Location: Beugnon
(47.6222°N, 3.7850°E)
Time: 11:56:22
(UTC+00:00)

Nadezhda 1 Rocket - Pass Details

Date: 09 April 2020
Orbit: 940 x 1006 km, 83.0° (Epoch: 27 May)

Event Time Altitude Azimuth Distance (km) Brightness Sun altitude
Rises 19:16:23 0° 180° (S) 3,720 6.8 -8.8°
Reaches altitude 10° 19:18:55 10° 179° (S) 2,772 6.1 -9.2°
Maximum altitude 19:25:16 74° 95° (E) 1,039 4.0 -10.2°
Drops below altitude 10° 19:31:36 10° 12° (NNE) 2,761 6.5 -11.2°
Sets 19:34:07 0° 11° (N) 3,705 7.2 -11.5°
